IZ4UFQ-10 Weather Reports


Display with metric or nautical units.
time (UTC)temp
F
wind
direction
speed
MPH
gust
MPH
rain 1hr
in
rain 24hr
in
rain mn
in
humidity
%
barometer
mb
20260504233041 64 208 0.0 0.0 0.00 0.00 0.00 53 1014.7
20260504232540 64 228 0.0 0.0 0.00 0.00 0.00 53 1014.9
20260504232040 65 198 0.0 0.0 0.00 0.00 0.00 52 1014.9
20260504231540 65 260 0.0 0.0 0.00 0.00 0.00 52 1014.9
20260504231039 65 196 0.0 0.0 0.00 0.00 0.00 52 1014.9
20260504230539 65 216 0.0 0.0 0.00 0.00 0.00 52 1014.9
20260504230039 65 197 0.0 0.0 0.00 0.00 0.00 51 1015.0
20260504225539 65 208 0.0 0.0 0.00 0.00 0.00 51 1014.9
20260504225038 65 171 0.0 0.0 0.00 0.00 0.00 52 1015.0
20260504224538 65 199 0.0 0.0 0.00 0.00 0.00 52 1015.1
20260504224038 65 209 0.0 0.0 0.00 0.00 0.00 51 1015.1
20260504223537 65 201 0.0 0.0 0.00 0.00 0.00 52 1015.1
20260504223037 65 195 0.0 0.0 0.00 0.00 0.00 51 1015.1
20260504222537 65 222 0.0 0.0 0.00 0.00 0.00 52 1015.1
20260504222036 66 212 0.0 0.0 0.00 0.00 0.00 52 1015.1
20260504221536 66 182 0.0 0.0 0.00 0.00 0.00 51 1015.2
20260504221036 66 216 0.0 0.0 0.00 0.00 0.00 51 1015.2
20260504220536 66 180 0.0 0.0 0.00 0.00 0.00 52 1015.2
20260504220035 66 228 0.0 0.0 0.00 0.00 0.00 52 1015.2
20260504215535 66 247 0.0 0.0 0.00 0.00 0.00 53 1015.2
20260504215035 66 202 0.0 0.0 0.00 0.00 0.00 53 1015.1
20260504214535 66 243 0.0 0.0 0.00 0.00 0.00 54 1015.2
20260504214034 66 206 0.0 0.0 0.00 0.00 0.00 55 1015.2
20260504213534 66 213 0.0 0.0 0.00 0.00 0.00 55 1015.2
20260504213034 66 211 0.0 0.0 0.00 0.00 0.00 55 1015.3
20260504212533 66 187 0.0 0.0 0.00 0.00 0.00 55 1015.2
20260504212033 66 169 0.0 0.0 0.00 0.00 0.00 55 1015.3
20260504211533 67 216 0.0 0.0 0.00 0.00 0.00 55 1015.3
20260504211033 67 233 0.0 0.0 0.00 0.00 0.00 55 1015.4
20260504210532 67 182 0.0 0.0 0.00 0.00 0.00 55 1015.4
20260504210032 67 203 0.0 0.0 0.00 0.00 0.00 55 1015.3
20260504205532 67 160 0.0 0.0 0.00 0.00 0.00 55 1015.2
20260504205031 67 181 0.0 0.0 0.00 0.00 0.00 54 1015.3
20260504204531 67 182 0.0 0.0 0.00 0.00 0.00 54 1015.3
20260504204031 67 137 0.0 0.0 0.00 0.00 0.00 54 1015.3
20260504203531 67 178 0.0 0.0 0.00 0.00 0.00 53 1015.3
20260504203030 67 172 0.0 0.0 0.00 0.00 0.00 53 1015.2
20260504202530 67 231 0.0 0.0 0.00 0.00 0.00 53 1015.3
20260504202030 67 220 0.0 0.0 0.00 0.00 0.00 53 1015.2
20260504201529 67 219 0.0 0.0 0.00 0.00 0.00 54 1015.2
20260504201029 67 228 0.0 0.0 0.00 0.00 0.00 54 1015.2
20260504200529 67 201 0.0 0.0 0.00 0.00 0.00 55 1015.1
20260504200028 67 166 0.0 0.0 0.00 0.00 0.00 54 1015.2
20260504195621 67 216 0.0 0.0 0.00 0.00 0.00 54 1015.2
20260504195528 67 216 0.0 0.0 0.00 0.00 0.00 54 1015.2
20260504195028 67 172 0.0 0.0 0.00 0.00 0.00 54 1015.1
20260504194528 67 180 0.0 0.0 0.00 0.00 0.00 53 1015.1
20260504194027 67 179 0.0 0.0 0.00 0.00 0.00 52 1015.0
20260504193527 68 199 0.0 0.0 0.00 0.00 0.00 52 1015.0
20260504193027 68 191 0.0 0.0 0.00 0.00 0.00 51 1014.9
20260504192526 68 198 0.0 0.0 0.00 0.00 0.00 50 1014.8
20260504192026 68 187 0.0 0.0 0.00 0.00 0.00 49 1014.8
20260504191526 68 174 0.0 0.0 0.00 0.00 0.00 49 1014.7
20260504191026 68 216 0.0 0.0 0.00 0.00 0.00 49 1014.7
20260504190525 68 170 0.0 0.0 0.00 0.00 0.00 48 1014.7
20260504190025 68 149 0.0 0.0 0.00 0.00 0.00 48 1014.7
20260504185525 68 189 0.0 0.0 0.00 0.00 0.00 48 1014.7
20260504185028 69 156 0.0 0.0 0.00 0.00 0.00 48 1014.7
20260504184524 69 170 0.0 0.0 0.00 0.00 0.00 47 1014.7
20260504184024 69 167 0.0 0.0 0.00 0.00 0.00 47 1014.7
20260504183524 69 210 0.0 0.0 0.00 0.00 0.00 46 1014.7
20260504183023 69 167 0.0 0.0 0.00 0.00 0.00 46 1014.7
20260504182523 70 174 0.0 0.0 0.00 0.00 0.00 45 1014.7
20260504182023 70 181 0.0 0.0 0.00 0.00 0.00 45 1014.7
20260504181522 70 172 0.0 0.0 0.00 0.00 0.00 44 1014.7
20260504181022 70 172 0.0 0.0 0.00 0.00 0.00 44 1014.6
20260504180522 71 162 0.0 0.0 0.00 0.00 0.00 44 1014.6
20260504180022 71 177 0.0 0.0 0.00 0.00 0.00 43 1014.6
20260504175521 72 156 0.0 0.0 0.00 0.00 0.00 42 1014.6
20260504175021 72 166 0.0 0.0 0.00 0.00 0.00 42 1014.5
20260504174521 72 170 0.0 0.0 0.00 0.00 0.00 41 1014.6
20260504174020 73 162 0.0 0.0 0.00 0.00 0.00 41 1014.5
20260504173520 73 175 0.0 0.0 0.00 0.00 0.00 40 1014.5
20260504173020 73 174 0.0 0.0 0.00 0.00 0.00 40 1014.5
20260504172520 73 203 0.0 0.0 0.00 0.00 0.00 39 1014.5
20260504172019 74 161 0.0 0.0 0.00 0.00 0.00 38 1014.5
20260504171519 74 205 0.0 0.0 0.00 0.00 0.00 37 1014.6
20260504171019 74 165 0.0 0.0 0.00 0.00 0.00 37 1014.6
20260504170518 75 181 0.0 0.0 0.00 0.00 0.00 36 1014.6
20260504151012 76 176 0.0 0.0 0.00 0.00 0.00 31 1014.9
20260504150512 76 177 0.0 0.0 0.00 0.00 0.00 30 1015.0
20260504141008 77 173 0.0 0.0 0.00 0.00 0.00 29 1015.2
20260504140508 78 189 0.0 0.0 0.00 0.00 0.00 27 1015.2
20260504130505 77 242 0.0 0.0 0.00 0.00 0.00 30 1015.8
20260504110458 76 328 0.0 0.0 0.00 0.00 0.00 34 1016.6
20260504100454 74 193 0.0 0.0 0.00 0.00 0.00 39 1017.2
20260504081948 71 247 0.0 0.0 0.00 0.00 0.00 42 1017.5
20260504081448 70 246 0.0 0.0 0.00 0.00 0.00 43 1017.6
20260504080948 70 233 0.0 0.0 0.00 0.00 0.00 43 1017.6
20260504080447 70 239 0.0 0.0 0.00 0.00 0.00 43 1017.5
20260504050437 62 210 0.0 0.0 0.00 0.00 0.00 44 1016.5
20260504045937 62 209 0.0 0.0 0.00 0.00 0.00 44 1016.5
20260504045436 62 205 0.0 0.0 0.00 0.00 0.00 43 1016.5
20260504044936 62 209 0.0 0.0 0.00 0.00 0.00 43 1016.5
20260504044436 62 197 0.0 0.0 0.00 0.00 0.00 43 1016.4
20260504043936 62 212 0.0 0.0 0.00 0.00 0.00 43 1016.4
20260504043435 62 208 0.0 0.0 0.00 0.00 0.00 43 1016.4
20260504042935 62 159 0.0 0.0 0.00 0.00 0.00 43 1016.3
20260504042435 61 197 0.0 0.0 0.00 0.00 0.00 44 1016.3
20260504041934 61 207 0.0 0.0 0.00 0.00 0.00 44 1016.2
20260504041434 60 194 0.0 0.0 0.00 0.00 0.00 46 1016.2
20260504040934 59 221 0.0 0.0 0.00 0.00 0.00 47 1016.1
20260504040434 59 189 0.0 0.0 0.00 0.00 0.00 49 1016.2
20260504035933 59 235 0.0 0.0 0.00 0.00 0.00 49 1016.2
20260504035433 59 235 0.0 0.0 0.00 0.00 0.00 49 1016.3
20260504034933 59 235 0.0 0.0 0.00 0.00 0.00 49 1016.2
20260504034432 59 235 0.0 0.0 0.00 0.00 0.00 48 1016.2
20260504033932 60 235 0.0 0.0 0.00 0.00 0.00 48 1016.3
20260504033432 60 235 0.0 0.0 0.00 0.00 0.00 47 1016.3
20260504032932 60 235 0.0 0.0 0.00 0.00 0.00 46 1016.3
20260504032431 60 235 0.0 0.0 0.00 0.00 0.00 46 1016.3
20260504031931 60 235 0.0 0.0 0.00 0.00 0.00 46 1016.3
20260504031431 60 235 0.0 0.0 0.00 0.00 0.00 46 1016.3
20260504030930 61 235 0.0 0.0 0.00 0.00 0.00 45 1016.3
20260504030430 61 233 0.0 0.0 0.00 0.00 0.00 45 1016.3
20260504025930 61 220 0.0 0.0 0.00 0.00 0.00 44 1016.3
20260504025430 61 231 0.0 0.0 0.00 0.00 0.00 44 1016.3
20260504024929 61 220 0.0 0.0 0.00 0.00 0.00 44 1016.4
20260504024429 61 238 0.0 0.0 0.00 0.00 0.00 44 1016.4
20260504023929 62 204 0.0 0.0 0.00 0.00 0.00 43 1016.4
20260504023428 62 222 0.0 0.0 0.00 0.00 0.00 43 1016.5
20260504022928 61 197 0.0 0.0 0.00 0.00 0.00 43 1016.5
20260504022428 61 212 0.0 0.0 0.00 0.00 0.00 44 1016.5
20260504021927 61 226 0.0 0.0 0.00 0.00 0.00 44 1016.6
20260504021427 61 238 0.0 0.0 0.00 0.00 0.00 46 1016.6
20260504020927 61 240 0.0 0.0 0.00 0.00 0.00 45 1016.7
20260504020427 61 213 0.0 0.0 0.00 0.00 0.00 46 1016.7
20260504015926 61 213 0.0 0.0 0.00 0.00 0.00 45 1016.7
20260504015426 61 212 0.0 0.0 0.00 0.00 0.00 45 1016.6
20260504014926 61 206 0.0 0.0 0.00 0.00 0.00 46 1016.6
20260504014425 61 212 0.0 0.0 0.00 0.00 0.00 46 1016.7
20260504013925 62 211 0.0 0.0 0.00 0.00 0.00 46 1016.7
20260504013425 62 212 0.0 0.0 0.00 0.00 0.00 46 1016.7
20260504012925 62 218 0.0 0.0 0.00 0.00 0.00 45 1016.7
20260504012424 62 218 0.0 0.0 0.00 0.00 0.00 44 1016.8
20260504011924 62 218 0.0 0.0 0.00 0.00 0.00 44 1016.7
20260504011424 62 211 0.0 0.0 0.00 0.00 0.00 43 1016.7
20260504010923 63 222 0.0 0.0 0.00 0.00 0.00 43 1016.8
20260504010423 63 180 0.0 0.0 0.00 0.00 0.00 42 1016.8
20260504005923 63 244 0.0 0.0 0.00 0.00 0.00 42 1016.9
20260504005423 63 275 0.0 0.0 0.00 0.00 0.00 42 1016.8
20260504004922 63 293 0.0 0.0 0.00 0.00 0.00 42 1016.8
20260504004422 63 295 0.0 0.0 0.00 0.00 0.00 42 1016.8
20260504003922 63 295 0.0 0.0 0.00 0.00 0.00 41 1016.7
20260504003421 64 207 0.0 0.0 0.00 0.00 0.00 41 1016.6
20260504002921 64 230 0.0 0.0 0.00 0.00 0.00 42 1016.6
20260504002421 64 233 0.0 0.0 0.00 0.00 0.00 41 1016.7
20260504001921 64 215 0.0 0.0 0.00 0.00 0.00 41 1016.6
20260504001420 64 225 0.0 0.0 0.00 0.00 0.00 41 1016.7
20260504000920 64 224 0.0 0.0 0.00 0.00 0.00 41 1016.6
20260504000420 64 208 0.0 0.0 0.00 0.00 0.00 41 1016.6
20260503235919 64 200 0.0 0.0 0.00 0.00 0.00 41 1016.6
20260503235419 64 210 0.0 0.0 0.00 0.00 0.00 41 1016.6
20260503234919 65 224 0.0 0.0 0.00 0.00 0.00 41 1016.6
20260503234419 65 191 0.0 0.0 0.00 0.00 0.00 40 1016.7
20260503233918 65 214 0.0 0.0 0.00 0.00 0.00 40 1016.7
20260503233418 65 186 0.0 0.0 0.00 0.00 0.00 41 1016.7